TimeEDT,TemperatureF,Dew PointF,Humidity,Sea Level PressureIn,VisibilityMPH,Wind Direction,Wind SpeedMPH,Gust SpeedMPH,PrecipitationIn,Events,Conditions,WindDirDegrees,DateUTC
12:15 AM,73.4,71.6,94,30.04,10.0,Calm,Calm,-,N/A,,Clear,0,2013-09-17 04:15:00
12:35 AM,73.4,71.6,94,30.04,10.0,Calm,Calm,-,N/A,,Clear,0,2013-09-17 04:35:00
12:55 AM,73.4,69.8,88,30.04,10.0,Calm,Calm,-,N/A,,Clear,0,2013-09-17 04:55:00
1:15 AM,73.4,69.8,88,30.04,10.0,Calm,Calm,-,N/A,,Clear,0,2013-09-17 05:15:00
1:35 AM,73.4,71.6,94,30.05,10.0,Calm,Calm,-,N/A,,Clear,0,2013-09-17 05:35:00
1:55 AM,71.6,69.8,94,30.05,10.0,Calm,Calm,-,N/A,,Clear,0,2013-09-17 05:55:00
2:15 AM,71.6,69.8,94,30.04,10.0,Calm,Calm,-,N/A,,Clear,0,2013-09-17 06:15:00
2:35 AM,71.6,69.8,94,30.04,10.0,Calm,Calm,-,N/A,,Clear,0,2013-09-17 06:35:00
2:55 AM,71.6,69.8,94,30.03,7.0,Calm,Calm,-,N/A,,Clear,0,2013-09-17 06:55:00
3:15 AM,71.6,69.8,94,30.03,7.0,Calm,Calm,-,N/A,,Clear,0,2013-09-17 07:15:00
3:35 AM,71.6,69.8,94,30.02,5.0,Calm,Calm,-,N/A,,Clear,0,2013-09-17 07:35:00
3:55 AM,71.6,69.8,94,30.02,7.0,Calm,Calm,-,N/A,,Clear,0,2013-09-17 07:55:00
4:15 AM,71.6,69.8,94,30.02,7.0,Calm,Calm,-,N/A,,Clear,0,2013-09-17 08:15:00
4:35 AM,71.6,69.8,94,30.02,10.0,Calm,Calm,-,N/A,,Clear,0,2013-09-17 08:35:00
4:55 AM,71.6,69.8,94,30.02,10.0,Calm,Calm,-,N/A,,Clear,0,2013-09-17 08:55:00
5:15 AM,71.6,69.8,94,30.02,10.0,Calm,Calm,-,N/A,,Clear,0,2013-09-17 09:15:00
5:35 AM,69.8,69.8,100,30.03,10.0,Calm,Calm,-,N/A,,Clear,0,2013-09-17 09:35:00
5:55 AM,69.8,69.8,100,30.03,10.0,Calm,Calm,-,N/A,,Clear,0,2013-09-17 09:55:00
6:15 AM,71.6,69.8,94,30.03,10.0,Calm,Calm,-,N/A,,Clear,0,2013-09-17 10:15:00
6:35 AM,71.6,69.8,94,30.03,10.0,Calm,Calm,-,N/A,,Clear,0,2013-09-17 10:35:00
6:55 AM,71.6,69.8,94,30.04,10.0,Calm,Calm,-,N/A,,Clear,0,2013-09-17 10:55:00
7:15 AM,69.8,69.8,100,30.05,10.0,Calm,Calm,-,N/A,,Clear,0,2013-09-17 11:15:00
7:35 AM,71.6,69.8,94,30.06,10.0,Calm,Calm,-,N/A,,Clear,0,2013-09-17 11:35:00
7:55 AM,71.6,69.8,94,30.06,10.0,Calm,Calm,-,N/A,,Clear,0,2013-09-17 11:55:00
8:15 AM,71.6,69.8,94,30.06,10.0,Calm,Calm,-,N/A,,Clear,0,2013-09-17 12:15:00
8:35 AM,71.6,69.8,94,30.07,10.0,Calm,Calm,-,N/A,,Clear,0,2013-09-17 12:35:00
8:55 AM,75.2,69.8,83,30.07,10.0,Calm,Calm,-,N/A,,Clear,0,2013-09-17 12:55:00
9:15 AM,77.0,71.6,83,30.07,10.0,NE,4.6,-,N/A,,Clear,50,2013-09-17 13:15:00
9:35 AM,80.6,71.6,74,30.07,10.0,ENE,4.6,-,N/A,,Clear,70,2013-09-17 13:35:00
9:55 AM,82.4,71.6,70,30.07,10.0,ENE,6.9,-,N/A,,Clear,60,2013-09-17 13:55:00
10:15 AM,82.4,71.6,70,30.07,10.0,ENE,9.2,-,N/A,,Scattered Clouds,70,2013-09-17 14:15:00
10:35 AM,84.2,71.6,66,30.08,10.0,East,9.2,-,N/A,,Scattered Clouds,80,2013-09-17 14:35:00
10:55 AM,86.0,71.6,62,30.08,10.0,East,6.9,-,N/A,,Scattered Clouds,80,2013-09-17 14:55:00
11:15 AM,86.0,71.6,62,30.08,10.0,East,8.1,-,N/A,,Mostly Cloudy,100,2013-09-17 15:15:00
11:35 AM,87.8,71.6,58,30.07,10.0,ENE,9.2,17.3,N/A,,Scattered Clouds,70,2013-09-17 15:35:00
11:55 AM,86.0,69.8,58,30.08,10.0,East,11.5,-,N/A,,Scattered Clouds,80,2013-09-17 15:55:00
12:15 PM,87.8,69.8,55,30.08,10.0,East,10.4,18.4,N/A,,Scattered Clouds,90,2013-09-17 16:15:00
12:35 PM,89.6,68.0,49,30.06,10.0,East,12.7,-,N/A,,Scattered Clouds,80,2013-09-17 16:35:00
12:55 PM,87.8,69.8,55,30.06,10.0,East,10.4,-,N/A,,Scattered Clouds,90,2013-09-17 16:55:00
1:15 PM,89.6,68.0,49,30.04,10.0,East,11.5,-,N/A,,Scattered Clouds,80,2013-09-17 17:15:00
1:35 PM,89.6,68.0,49,30.04,10.0,ENE,9.2,16.1,N/A,,Clear,70,2013-09-17 17:35:00
1:55 PM,89.6,68.0,49,30.02,10.0,East,12.7,-,N/A,,Scattered Clouds,80,2013-09-17 17:55:00
2:15 PM,91.4,68.0,46,30.01,10.0,East,4.6,-,N/A,,Scattered Clouds,100,2013-09-17 18:15:00
2:35 PM,91.4,68.0,46,30.00,10.0,East,12.7,17.3,N/A,,Scattered Clouds,80,2013-09-17 18:35:00
2:55 PM,91.4,66.2,43,29.99,10.0,East,11.5,19.6,N/A,,Scattered Clouds,80,2013-09-17 18:55:00
3:15 PM,91.4,68.0,46,29.98,10.0,East,12.7,18.4,N/A,,Clear,90,2013-09-17 19:15:00
3:35 PM,91.4,68.0,46,29.98,10.0,East,8.1,18.4,N/A,,Clear,100,2013-09-17 19:35:00
3:55 PM,89.6,68.0,49,29.97,10.0,ESE,6.9,-,N/A,,Clear,120,2013-09-17 19:55:00
4:15 PM,89.6,68.0,49,29.96,10.0,East,13.8,19.6,N/A,,Clear,90,2013-09-17 20:15:00
4:35 PM,87.8,66.2,49,29.97,10.0,ESE,6.9,17.3,N/A,,Scattered Clouds,110,2013-09-17 20:35:00
4:55 PM,89.6,68.0,49,29.97,10.0,East,6.9,-,N/A,,Scattered Clouds,100,2013-09-17 20:55:00
5:15 PM,89.6,69.8,52,29.97,10.0,East,18.4,24.2,N/A,,Scattered Clouds,80,2013-09-17 21:15:00
5:35 PM,86.0,68.0,55,29.97,10.0,NE,9.2,18.4,N/A,,Scattered Clouds,50,2013-09-17 21:35:00
5:55 PM,86.0,68.0,55,29.97,10.0,ENE,5.8,-,N/A,,Mostly Cloudy,70,2013-09-17 21:55:00
6:15 PM,86.0,69.8,58,29.97,10.0,ENE,5.8,-,N/A,,Overcast,60,2013-09-17 22:15:00
6:35 PM,84.2,69.8,62,29.98,10.0,East,8.1,-,N/A,,Overcast,80,2013-09-17 22:35:00
6:55 PM,84.2,69.8,62,29.98,10.0,East,4.6,-,N/A,,Mostly Cloudy,90,2013-09-17 22:55:00
7:15 PM,82.4,69.8,66,29.98,10.0,East,5.8,-,N/A,,Scattered Clouds,90,2013-09-17 23:15:00
7:35 PM,82.4,69.8,66,29.99,10.0,East,4.6,-,N/A,,Clear,90,2013-09-17 23:35:00
7:55 PM,80.6,69.8,70,30.00,10.0,East,4.6,-,N/A,,Mostly Cloudy,80,2013-09-17 23:55:00
8:15 PM,80.6,69.8,70,30.01,10.0,East,4.6,-,N/A,,Mostly Cloudy,80,2013-09-18 00:15:00
8:35 PM,78.8,69.8,74,30.01,10.0,ENE,6.9,-,N/A,,Scattered Clouds,70,2013-09-18 00:35:00
8:55 PM,78.8,69.8,74,30.00,10.0,ENE,5.8,-,N/A,,Clear,70,2013-09-18 00:55:00
9:15 PM,78.8,69.8,74,30.01,10.0,Calm,Calm,-,N/A,,Clear,0,2013-09-18 01:15:00
9:35 PM,78.8,69.8,74,30.01,10.0,Calm,Calm,-,N/A,,Clear,0,2013-09-18 01:35:00
9:55 PM,77.0,69.8,78,30.02,10.0,ENE,5.8,-,N/A,,Clear,60,2013-09-18 01:55:00
10:15 PM,78.8,69.8,74,30.03,10.0,ENE,5.8,-,N/A,,Clear,70,2013-09-18 02:15:00
10:35 PM,78.8,69.8,74,30.03,10.0,NE,3.5,-,N/A,,Scattered Clouds,50,2013-09-18 02:35:00
10:55 PM,77.0,69.8,78,30.03,10.0,NE,5.8,-,N/A,,Clear,50,2013-09-18 02:55:00
11:15 PM,77.0,69.8,78,30.04,10.0,NE,5.8,-,N/A,,Clear,50,2013-09-18 03:15:00
11:35 PM,77.0,69.8,78,30.04,10.0,ENE,5.8,-,N/A,,Clear,60,2013-09-18 03:35:00
11:55 PM,77.0,69.8,78,30.04,10.0,ENE,5.8,-,N/A,,Clear,60,2013-09-18 03:55:00